This demonstration page uses our WeatherBlox Daily Observations layout. Learn more.

Left ArrowRight Arrow

39.29038, -76.61219

Hourly Observations for December 23, 2020

Temp ( °F °C ) Dew Point ( °F °C ) Humidity (%) Winds ( mph kmh ) Pressure ( in mb ) Visibility ( mi km ) Precip ( " mm )
12:54 am 00:54 Clear 37 2.8 27 -2.8 67 67 WSW 3 6 30.28 1025 10 16 0.00 0.00
1:54 am 01:54 Clear 31 -0.6 25 -3.9 79 79 Calm 30.31 1026 10 16 0.00 0.00
2:54 am 02:54 Clear 30 -1.1 25 -3.9 82 82 Calm 30.32 1027 10 16 0.00 0.00
3:54 am 03:54 Clear 31 -0.6 26 -3.3 82 82 WSW 3 6 30.33 1027 10 16 0.00 0.00
4:54 am 04:54 Clear 30 -1.1 26 -3.3 85 85 Calm 30.35 1028 10 16 0.00 0.00
5:54 am 05:54 Mostly Clear 29 -1.7 24 -4.4 82 82 Calm 30.37 1028 10 16 0.00 0.00
6:54 am 06:54 Mostly Clear 27 -2.8 23 -5 85 85 W 5 7 30.40 1029 10 16 0.00 0.00
7:54 am 07:54 Mostly Cloudy 31 -0.6 26 -3.3 82 82 W 3 6 30.42 1030 10 16 0.00 0.00
8:54 am 08:54 Mostly Cloudy 36 2.2 29 -1.7 76 76 Calm 30.42 1030 10 16 0.00 0.00
9:54 am 09:54 Cloudy 42 5.6 31 -0.6 65 65 Calm 30.44 1031 10 16 0.00 0.00
10:54 am 10:54 Cloudy 45 7.2 28 -2.2 52 52 SSE 7 11 30.41 1030 10 16 0.00 0.00
11:54 am 11:54 Cloudy 47 8.3 28 -2.2 48 48 S 7 11 30.37 1028 10 16 0.00 0.00
12:54 pm 12:54 Cloudy 48 8.9 28 -2.2 46 46 SSE 6 9 30.34 1027 10 16 0.00 0.00
1:54 pm 13:54 Cloudy 48 8.9 28 -2.2 46 46 S 7 11 30.32 1027 10 16 0.00 0.00
2:54 pm 14:54 Cloudy 47 8.3 29 -1.7 50 50 SE 9 15 30.30 1026 10 16 0.00 0.00
3:54 pm 15:54 Mostly Cloudy 47 8.3 30 -1.1 52 52 SE 8 13 30.31 1026 10 16 0.00 0.00
4:54 pm 16:54 Mostly Cloudy 44 6.7 31 -0.6 60 60 SE 9 15 30.30 1026 10 16 0.00 0.00
5:54 pm 17:54 Mostly Cloudy 43 6.1 31 -0.6 63 63 SSE 5 7 30.31 1026 10 16 0.00 0.00
6:54 pm 18:54 Mostly Cloudy 42 5.6 33 0.6 71 71 SSE 5 7 30.31 1027 10 16 0.00 0.00
7:54 pm 19:54 Cloudy 43 6.1 34 1.1 71 71 SSE 5 7 30.31 1026 10 16 0.00 0.00
8:54 pm 20:54 Cloudy 42 5.6 35 1.7 76 76 VRB 3 6 30.29 1026 10 16 0.00 0.00
9:54 pm 21:54 Cloudy 43 6.1 36 2.2 76 76 SE 5 7 30.25 1024 10 16 0.00 0.00
10:54 pm 22:54 Mostly Cloudy 43 6.1 37 2.8 80 80 Calm 30.25 1025 10 16 0.00 0.00
11:54 pm 23:54 Cloudy 43 6.1 39 3.9 86 86 Calm 30.24 1024 10 16 0.00 0.00

Powered by AerisWeather